G2045 Weather Reports


time (UTC)temp
F
wind
direction
speed
knots
gust
knots
rain 1hr
in
rain 24hr
in
rain mn
in
humidity
%
barometer
mb
20260505190559 73 314 1.7 7.8 0.00 0.00 0.00 38 1009.1
20260505185824 73 290 1.7 7.8 0.00 0.00 0.00 37 1009.0
20260505185317 72 308 2.6 7.8 0.00 0.00 0.00 39 1009.1
20260505184811 72 348 1.7 7.0 0.00 0.00 0.00 36 1009.1
20260505184306 72 325 1.7 5.2 0.00 0.00 0.00 36 1009.3
20260505183759 72 323 1.7 5.2 0.00 0.00 0.00 39 1009.4
20260505183519 72 325 0.9 4.3 0.00 0.00 0.00 37 1009.3
20260505182747 72 317 0.9 4.3 0.00 0.00 0.00 38 1009.3
20260505182459 72 202 1.7 7.0 0.00 0.00 0.00 41 1009.4
20260505181735 71 354 1.7 7.0 0.00 0.00 0.00 37 1009.4
20260505181229 71 299 1.7 5.2 0.00 0.00 0.00 36 1009.4
20260505180725 71 339 0.9 5.2 0.00 0.00 0.00 37 1009.6
20260505180231 70 177 1.7 7.0 0.00 0.00 0.00 40 1009.6
20260505175936 70 272 1.7 7.0 0.00 0.00 0.00 40 1009.6
20260505175422 69 331 0.9 2.6 0.00 0.00 0.00 41 1009.7
20260505174700 69 348 0.9 6.1 0.00 0.00 0.00 40 1009.7
20260505174153 68 35 0.9 6.1 0.00 0.00 0.00 43 1009.7
20260505173648 67 124 1.7 5.2 0.00 0.00 0.00 38 1009.7
20260505173142 67 100 1.7 5.2 0.00 0.00 0.00 47 1009.6
20260505172636 66 148 1.7 4.3 0.00 0.00 0.00 40 1009.7
20260505172130 67 189 1.7 7.0 0.00 0.00 0.00 44 1009.7
20260505171624 66 320 1.7 7.0 0.00 0.00 0.00 44 1009.7
20260505171130 67 151 0.9 4.3 0.00 0.00 0.00 46 1009.6
20260505170612 69 262 0.9 4.3 0.00 0.00 0.00 41 1009.6
20260505170108 68 50 0.9 4.3 0.00 0.00 0.00 40 1009.4
20260505165600 67 201 1.7 6.1 0.00 0.00 0.00 45 1009.4
20260505165056 68 169 1.7 6.1 0.00 0.00 0.00 39 1009.6
20260505164548 68 162 1.7 7.8 0.00 0.00 0.00 41 1009.4
20260505164042 68 122 1.7 7.8 0.00 0.00 0.00 40 1009.4
20260505164027 69 193 1.7 5.2 0.00 0.00 0.00 38 1009.4
20260505163029 68 202 2.6 7.0 0.00 0.00 0.00 37 1009.4
20260505162745 68 208 3.5 8.7 0.00 0.00 0.00 40 1009.4
20260505162017 68 191 3.5 8.7 0.00 0.00 0.00 39 1009.4
20260505161735 67 198 2.6 7.0 0.00 0.00 0.00 40 1009.4
20260505161227 67 222 2.6 7.0 0.00 0.00 0.00 40 1009.2
20260505160459 66 216 2.6 7.0 0.00 0.00 0.00 44 1009.3
20260505152917 62 198 2.6 6.1 0.00 0.00 0.00 50 1008.9
20260505152411 61 179 2.6 7.0 0.00 0.00 0.00 52 1008.9
20260505151905 60 152 2.6 7.0 0.00 0.00 0.00 53 1008.9
20260505151400 60 186 2.6 7.8 0.00 0.00 0.00 56 1008.8
20260505150854 59 138 3.5 7.8 0.00 0.00 0.00 58 1008.8
20260505150347 58 183 3.5 5.2 0.00 0.00 0.00 59 1008.7
20260505140248 50 105 0.9 4.3 0.00 0.00 0.00 73 1008.4
20260505130123 50 92 0.0 1.7 0.00 0.00 0.00 70 1007.2
20260505124601 50 110 0.9 3.5 0.00 0.00 0.00 69 1007.1
20260505124108 50 98 0.9 2.6 0.00 0.00 0.00 69 1007.0
20260505123549 50 97 0.9 2.6 0.00 0.00 0.00 69 1006.6
20260505123314 50 97 0.0 2.6 0.00 0.00 0.00 69 1006.6
20260505122537 50 127 0.0 0.0 0.00 0.00 0.00 69 1006.5
20260505122032 50 127 0.0 0.0 0.00 0.00 0.00 68 1006.4
20260505121526 51 147 0.0 0.0 0.00 0.00 0.00 68 1006.4
20260505121020 51 100 0.0 0.0 0.00 0.00 0.00 68 1006.1
20260505120513 51 118 0.0 1.7 0.00 0.00 0.00 68 1006.0
20260505120008 51 147 0.9 1.7 0.00 0.00 0.00 68 1005.9
20260505115501 51 127 0.9 1.7 0.00 0.00 0.00 68 1005.9
20260505114955 51 127 0.9 2.6 0.00 0.00 0.00 67 1005.9
20260505114449 51 118 0.9 2.6 0.00 0.00 0.00 67 1005.8
20260505114211 51 119 0.0 1.7 0.00 0.00 0.00 66 1005.8
20260505113438 52 119 0.0 1.7 0.00 0.00 0.00 66 1005.8
20260505112932 52 119 0.0 1.7 0.00 0.00 0.00 66 1005.8
20260505112425 52 122 0.0 1.7 0.00 0.00 0.00 65 1005.6
20260505112402 52 122 0.0 1.7 0.00 0.00 0.00 65 1005.6
20260505111416 52 118 0.9 1.7 0.00 0.00 0.00 65 1005.4
20260505111358 53 118 0.9 1.7 0.00 0.00 0.00 64 1005.2
20260505110407 53 118 0.0 1.7 0.00 0.00 0.00 64 1005.2
20260505101807 55 119 0.0 2.6 0.00 0.00 0.00 58 1004.7
20260505101301 56 119 0.0 2.6 0.00 0.00 0.00 58 1004.6
20260505100756 56 166 0.0 0.9 0.00 0.00 0.00 56 1004.4
20260505100249 56 166 0.0 0.0 0.00 0.00 0.00 56 1004.1
20260505095743 57 166 0.0 0.0 0.00 0.00 0.00 55 1004.1
20260505095458 57 166 0.0 0.0 0.00 0.00 0.00 54 1004.1
20260505094732 57 166 0.0 0.9 0.00 0.00 0.00 54 1004.0
20260505094225 57 166 0.0 0.9 0.00 0.00 0.00 53 1004.0
20260505093719 57 166 0.0 2.6 0.00 0.00 0.00 53 1003.9
20260505093213 58 166 0.9 2.6 0.00 0.00 0.00 53 1003.9
20260505092707 58 163 0.9 2.6 0.00 0.00 0.00 53 1004.0
20260505092203 58 342 0.0 2.6 0.00 0.00 0.00 52 1003.8
20260505091655 58 342 0.0 1.7 0.00 0.00 0.00 51 1003.6
20260505091151 59 342 0.0 1.7 0.00 0.00 0.00 51 1003.5
20260505090644 59 331 0.0 2.6 0.00 0.00 0.00 51 1003.4
20260505090137 59 318 0.0 2.6 0.00 0.00 0.00 51 1003.4
20260505085631 59 314 0.9 2.6 0.00 0.00 0.00 51 1003.3
20260505085348 60 314 0.9 3.5 0.00 0.00 0.00 51 1003.3
20260505084619 60 317 0.9 3.5 0.00 0.00 0.00 50 1003.3
20260505084113 60 339 0.9 3.5 0.00 0.00 0.00 50 1003.3
20260505083607 60 297 0.0 3.5 0.00 0.00 0.00 50 1003.3
20260505083101 61 304 0.0 1.7 0.00 0.00 0.00 50 1003.2
20260505082555 61 304 0.9 2.6 0.00 0.00 0.00 49 1003.2
20260505082049 61 337 0.9 2.6 0.00 0.00 0.00 48 1003.2
20260505081544 62 324 0.0 1.7 0.00 0.00 0.00 48 1003.2
20260505081258 62 316 0.9 2.6 0.00 0.00 0.00 48 1003.2
20260505080758 62 316 1.7 2.6 0.00 0.00 0.00 47 1003.2
20260505080027 62 307 0.9 3.5 0.00 0.00 0.00 47 1003.2
20260505075519 62 332 1.7 4.3 0.00 0.00 0.00 47 1003.2
20260505075014 62 314 1.7 4.3 0.00 0.00 0.00 47 1003.2
20260505074507 62 325 1.7 4.3 0.00 0.00 0.00 47 1003.2
20260505074001 62 341 1.7 4.3 0.00 0.00 0.00 47 1003.1
20260505073718 62 354 2.6 6.1 0.00 0.00 0.00 48 1003.1
20260505072949 62 323 2.6 6.1 0.00 0.00 0.00 47 1003.2
20260505072446 62 346 1.7 3.5 0.00 0.00 0.00 48 1003.2
20260505071945 62 330 1.7 3.5 0.00 0.00 0.00 48 1003.1
20260505071445 62 327 0.9 3.5 0.00 0.00 0.00 47 1003.2
20260505071208 62 312 0.9 2.6 0.00 0.00 0.00 48 1003.2
20260505070704 62 314 0.9 2.6 0.00 0.00 0.00 47 1003.2
20260505065943 62 4 0.0 2.6 0.00 0.00 0.00 47 1003.1
20260505065445 62 339 0.0 2.6 0.00 0.00 0.00 47 1003.0
20260505064939 62 317 0.0 1.7 0.00 0.00 0.00 46 1002.8
20260505064439 62 317 0.9 1.7 0.00 0.00 0.00 46 1002.7
20260505063940 62 355 1.7 4.3 0.00 0.00 0.00 46 1002.7
20260505063658 63 352 2.6 7.0 0.00 0.00 0.00 45 1002.6
20260505062937 63 352 2.6 7.0 0.00 0.00 0.00 44 1002.6
20260505062437 63 5 1.7 4.3 0.00 0.00 0.00 44 1002.6
20260505061938 63 321 0.9 2.6 0.00 0.00 0.00 45 1002.6
20260505061438 64 341 0.0 2.6 0.00 0.00 0.00 44 1002.7
20260505060937 64 327 0.9 2.6 0.00 0.00 0.00 43 1002.7
20260505060438 65 258 0.0 1.7 0.00 0.00 0.00 42 1002.7
20260505055937 65 215 0.0 0.9 0.00 0.00 0.00 41 1002.7
20260505055656 66 215 0.9 1.7 0.00 0.00 0.00 41 1002.7
20260505054928 66 215 0.9 1.7 0.00 0.00 0.00 40 1002.6
20260505054646 67 215 0.0 1.7 0.00 0.00 0.00 39 1002.5
20260505053917 67 223 0.9 2.6 0.00 0.00 0.00 39 1002.5
20260505053410 67 223 0.0 2.6 0.00 0.00 0.00 38 1002.4
20260505052904 68 343 0.0 1.7 0.00 0.00 0.00 37 1002.3
20260505052358 68 277 0.0 4.3 0.00 0.00 0.00 37 1002.3
20260505051852 69 343 0.9 4.3 0.00 0.00 0.00 37 1002.3
20260505051346 69 325 1.7 5.2 0.00 0.00 0.00 36 1002.3
20260505050840 69 328 1.7 5.2 0.00 0.00 0.00 35 1002.3
20260505050335 69 316 1.7 4.3 0.00 0.00 0.00 35 1002.3
20260505041741 70 1 3.5 8.7 0.00 0.00 0.00 33 1002.3
20260505041234 70 351 3.5 7.8 0.00 0.00 0.00 33 1002.3
20260505040951 70 338 3.5 7.8 0.00 0.00 0.00 34 1002.3
20260505040223 70 323 2.6 6.1 0.00 0.00 0.00 34 1002.3
20260505035720 70 338 2.6 7.0 0.00 0.00 0.00 34 1002.3
20260505035220 70 337 2.6 7.0 0.00 0.00 0.00 34 1002.2
20260505034720 70 331 1.7 5.2 0.00 0.00 0.00 34 1002.3
20260505034217 70 359 1.7 5.2 0.00 0.00 0.00 34 1002.2
20260505033716 71 358 1.7 5.2 0.00 0.00 0.00 34 1002.2
20260505033216 71 329 1.7 4.3 0.00 0.00 0.00 35 1002.2
20260505032715 72 340 1.7 4.3 0.00 0.00 0.00 36 1002.2
20260505032438 72 354 0.9 4.3 0.00 0.00 0.00 36 1002.1
20260505031715 73 340 0.0 2.6 0.00 0.00 0.00 36 1002.1
20260505031213 74 333 0.0 0.0 0.00 0.00 0.00 35 1002.1
20260505030943 74 333 0.0 0.9 0.00 0.00 0.00 35 1001.9
20260505030213 75 333 0.0 1.7 0.00 0.00 0.00 35 1001.9
20260505025711 76 329 0.0 1.7 0.00 0.00 0.00 34 1001.8
20260505025209 76 329 0.9 2.6 0.00 0.00 0.00 32 1001.8
20260505024708 76 326 1.7 5.2 0.00 0.00 0.00 31 1001.7
20260505024206 77 326 2.6 5.2 0.00 0.00 0.00 31 1001.6
20260505023705 77 339 2.6 11.3 0.00 0.00 0.00 30 1001.6
20260505023206 77 324 3.5 11.3 0.00 0.00 0.00 30 1001.6
20260505022706 77 10 2.6 10.4 0.00 0.00 0.00 30 1001.4
20260505022159 78 329 2.6 6.1 0.00 0.00 0.00 30 1001.4
20260505021912 78 354 3.5 9.6 0.00 0.00 0.00 30 1001.4
20260505021148 78 19 4.3 13.0 0.00 0.00 0.00 29 1001.4
20260505020642 78 0 3.5 13.0 0.00 0.00 0.00 30 1001.3
20260505020135 78 341 3.5 8.7 0.00 0.00 0.00 30 1001.4
20260505015851 79 337 3.5 11.3 0.00 0.00 0.00 30 1001.4
20260505015124 79 343 3.5 11.3 0.00 0.00 0.00 29 1001.6
20260505014617 79 310 2.6 8.7 0.00 0.00 0.00 29 1001.6
20260505014111 79 337 3.5 7.8 0.00 0.00 0.00 29 1001.6
20260505013606 79 358 5.2 14.8 0.00 0.00 0.00 28 1001.6
20260505013101 80 329 5.2 14.8 0.00 0.00 0.00 28 1001.7
20260505012554 80 346 5.2 11.3 0.00 0.00 0.00 27 1001.7
20260505012311 80 316 4.3 11.3 0.00 0.00 0.00 27 1001.7
20260505011541 81 356 6.1 12.2 0.00 0.00 0.00 27 1001.7
20260505011035 81 344 7.0 15.6 0.00 0.00 0.00 26 1001.7
20260505010530 81 352 6.1 15.6 0.00 0.00 0.00 25 1001.7
20260505010024 82 330 5.2 13.0 0.00 0.00 0.00 25 1001.8
20260505005517 82 359 5.2 13.0 0.00 0.00 0.00 25 1001.8
20260505005011 81 327 4.3 11.3 0.00 0.00 0.00 25 1001.9
20260505004506 81 3 5.2 13.9 0.00 0.00 0.00 25 1002.0
20260505003959 81 4 6.1 13.9 0.00 0.00 0.00 24 1001.9
20260505003453 81 323 5.2 13.0 0.00 0.00 0.00 23 1002.2
20260505002947 81 35 5.2 12.2 0.00 0.00 0.00 23 1002.2
20260505002442 80 340 6.1 14.8 0.00 0.00 0.00 23 1002.3
20260505001935 80 334 6.1 14.8 0.00 0.00 0.00 22 1002.3
20260505001429 80 17 5.2 13.0 0.00 0.00 0.00 22 1002.3
20260505000923 80 300 5.2 13.9 0.00 0.00 0.00 22 1002.3
20260505000420 80 342 7.0 13.9 0.00 0.00 0.00 21 1002.3
20260504235919 80 358 7.0 13.9 0.00 0.00 0.00 22 1002.3
20260504235419 80 21 5.2 13.0 0.00 0.00 0.00 22 1002.3
20260504235145 80 323 5.2 12.2 0.00 0.00 0.00 22 1002.3
20260504234417 80 335 4.3 12.2 0.00 0.00 0.00 23 1002.4
20260504233917 80 316 4.3 9.6 0.00 0.00 0.00 24 1002.4
20260504233416 80 316 5.2 13.0 0.00 0.00 0.00 24 1002.5
20260504232916 80 23 4.3 13.0 0.00 0.00 0.00 24 1002.6
20260504232415 80 332 3.5 8.7 0.00 0.00 0.00 25 1002.5
20260504231913 80 321 4.3 12.2 0.00 0.00 0.00 26 1002.5
20260504231413 80 277 5.2 12.2 0.00 0.00 0.00 26 1002.6
20260504230913 80 356 4.3 13.0 0.00 0.00 0.00 26 1002.7
20260504230411 80 309 5.2 13.0 0.00 0.00 0.00 28 1002.8
20260504225911 80 326 4.3 13.0 0.00 0.00 0.00 27 1002.8
20260504225411 80 324 4.3 13.9 0.00 0.00 0.00 27 1002.8
20260504224911 80 329 6.1 13.9 0.00 0.00 0.00 27 1002.8
20260504224411 80 333 5.2 13.0 0.00 0.00 0.00 27 1002.8
20260504223911 79 323 4.3 12.2 0.00 0.00 0.00 28 1003.0
20260504223405 79 301 4.3 12.2 0.00 0.00 0.00 28 1003.1
20260504222859 79 349 3.5 11.3 0.00 0.00 0.00 29 1003.2
20260504222354 79 331 3.5 11.3 0.00 0.00 0.00 30 1003.3
20260504221847 79 314 3.5 10.4 0.00 0.00 0.00 29 1003.3
20260504221345 79 354 2.6 10.4 0.00 0.00 0.00 30 1003.4
20260504220846 79 351 3.5 8.7 0.00 0.00 0.00 30 1003.5
20260504220343 79 42 4.3 9.6 0.00 0.00 0.00 30 1003.6
20260504215845 79 323 3.5 9.6 0.00 0.00 0.00 30 1003.7
20260504215343 79 345 2.6 9.6 0.00 0.00 0.00 31 1003.8
20260504214844 78 318 3.5 9.6 0.00 0.00 0.00 31 1003.8
20260504214609 78 246 2.6 7.8 0.00 0.00 0.00 31 1003.8
20260504214101 78 71 3.5 9.6 0.00 0.00 0.00 31 1003.9
20260504213344 78 348 3.5 9.6 0.00 0.00 0.00 31 1004.0
20260504212843 78 0 2.6 8.7 0.00 0.00 0.00 31 1004.1
20260504212343 78 292 2.6 8.7 0.00 0.00 0.00 32 1004.4
20260504211844 78 300 2.6 7.8 0.00 0.00 0.00 33 1004.4
20260504211343 78 310 3.5 10.4 0.00 0.00 0.00 32 1004.4
20260504210846 78 314 2.6 10.4 0.00 0.00 0.00 32 1004.6
20260504210346 78 339 3.5 9.6 0.00 0.00 0.00 35 1004.6
20260504210106 78 317 3.5 9.6 0.00 0.00 0.00 33 1004.6
20260504205954 77 329 3.5 9.6 0.00 0.00 0.00 35 1004.6
20260504205548 77 338 5.2 9.6 0.00 0.00 0.00 34 1004.7
20260504204341 77 335 4.3 9.6 0.00 0.00 0.00 34 1004.8
20260504203841 77 358 4.3 11.3 0.00 0.00 0.00 35 1004.7
20260504203558 76 2 4.3 12.2 0.00 0.00 0.00 35 1004.9
20260504202841 77 344 2.6 12.2 0.00 0.00 0.00 36 1005.1
20260504202341 77 336 2.6 7.8 0.00 0.00 0.00 35 1005.0
20260504201841 76 303 2.6 7.8 0.00 0.00 0.00 36 1005.1
20260504201341 77 325 2.6 9.6 0.00 0.00 0.00 37 1005.2
20260504201103 76 352 3.5 11.3 0.00 0.00 0.00 35 1005.2
20260504200342 76 237 2.6 11.3 0.00 0.00 0.00 36 1005.3
20260504195842 76 336 3.5 11.3 0.00 0.00 0.00 36 1005.4
20260504195610 76 330 3.5 11.3 0.00 0.00 0.00 34 1005.4
20260504194842 76 323 1.7 7.8 0.00 0.00 0.00 35 1005.6
20260504194342 76 313 0.9 6.1 0.00 0.00 0.00 38 1005.6
20260504193842 76 301 0.9 4.3 0.00 0.00 0.00 37 1005.7
20260504193342 76 277 1.7 8.7 0.00 0.00 0.00 36 1005.7
20260504192842 75 289 2.6 8.7 0.00 0.00 0.00 36 1005.7
20260504192343 75 329 2.6 6.1 0.00 0.00 0.00 37 1005.8
20260504191842 75 298 2.6 6.1 0.00 0.00 0.00 37 1005.9
20260504191338 75 313 2.6 7.8 0.00 0.00 0.00 36 1006.0
20260504190830 75 348 3.5 11.3 0.00 0.00 0.00 37 1006.1